ORBCOMM FM 1
1 25114U 97084C   03021.89663202  .00001320  00000-0  53392-3 0  1266
2 25114  45.0202 205.5136 0006358 303.3553  56.6679 14.32515155264669
ORBCOMM FM 1
1 25115U 97084D   03021.94887506  .00002520  00000-0  97229-3 0  1101
2 25115  45.0203 205.0403 0004926 307.7697  52.2701 14.32520122264678
ORBCOMM FM 9
1 25116U 97084E   03021.95849043  .00001349  00000-0  54479-3 0  2757
2 25116  45.0192 205.2011 0005798 290.2753  69.7468 14.32492801264675
ORBCOMM FM 5
1 25117U 97084F   03021.64364073  .00001177  00000-0  48165-3 0  2528
2 25117  45.0166 207.0368 0002177 330.7119  29.3579 14.32514189264620
ORBCOMM FM 6
1 25118U 97084G   03021.91298656  .00000124  00000-0  96864-4 0   925
2 25118  45.0207 205.6717 0002303 354.2386   5.8435 14.32504986264665
ORBCOMM FM 7
1 25119U 97084H   03021.93043049  .00002195  00000-0  85338-3 0  3456
2 25119  45.0172 205.7853 0003776 332.9901  27.0744 14.32530451264665
ORBCOMM FM 3
1 25158U 98007B   03022.13238508  .00001006  00000-0  48947-3 0   579
2 25158 108.0122  60.0183 0052166 343.2859  16.6553 14.23748889256495
ORBCOMM FM 4
1 25159U 98007C   03022.14412018  .00001118  00000-0  53971-3 0   602
2 25159 108.0131  60.2488 0047763 343.6793  16.2799 14.23678427256537
ORBCOMM FM 1
1 25413U 98046A   03021.94183961  .00001556  00000-0  70593-3 0  2165
2 25413  44.9994 351.6737 0003381 332.6298  27.4444 14.25833605232713
ORBCOMM FM 1
1 25414U 98046B   03022.23231163  .00001361  00000-0  62469-3 0  1668
2 25414  45.0001 350.3593 0004931 331.7457  28.3116 14.25829092232755
ORBCOMM FM 1
1 25415U 98046C   03021.96185170  .00001136  00000-0  53107-3 0  2002
2 25415  45.0027 351.7524 0004153 322.9120  37.1426 14.25833033232716
ORBCOMM FM 2
1 25416U 98046D   03022.32218022  .00001071  00000-0  50402-3 0   514
2 25416  44.9988 350.2338 0003733 331.5987  28.4619 14.25832676232728
ORBCOMM FM 1
1 25417U 98046E   03021.35155174  .00001516  00000-0  68931-3 0  2674
2 25417  45.0012 355.1309 0002552 342.2125  17.8628 14.25829581232624
ORBCOMM FM 1
1 25418U 98046F   03021.92193722  .00001664  00000-0  75120-3 0  3201
2 25418  45.0033 352.6383 0003494 349.6168  10.4597 14.25835409232705
ORBCOMM FM 1
1 25419U 98046G   03021.93196598  .00001703  00000-0  76736-3 0  2697
2 25419  45.0016 352.6352 0003440 340.8565  19.2139 14.25833213232708
ORBCOMM FM 1
1 25420U 98046H   03022.21708590  .00001705  00000-0  76825-3 0  1254
2 25420  45.0035 351.4474 0004327 345.5777  14.4941 14.25837718232774
ORBCOMM FM 2
1 25475U 98053A   03022.53116462  .00001447  00000-0  64387-3 0  2454
2 25475  45.0114 100.4084 0004830 248.8640 111.1678 14.27173079225605
ORBCOMM FM 2
1 25476U 98053B   03021.65604596  .00001483  00000-0  65857-3 0   605
2 25476  45.0100 104.8673 0002682 251.6877 108.3659 14.27170162225461
ORBCOMM FM 2
1 25477U 98053C   03022.20429857  .00001568  00000-0  69312-3 0  2238
2 25477  45.0116 102.1187 0003208 262.9344  97.1126 14.27174064225716
ORBCOMM FM 2
1 25478U 98053D   03021.63243676  .00001291  00000-0  58080-3 0    82
2 25478  45.0117 104.7988 0002175 242.0537 118.0088 14.27166350225618
ORBCOMM FM 2
1 25479U 98053E   03021.66786023  .00001694  00000-0  74438-3 0  1100
2 25479  45.0103 104.1868 0003020 293.6270  66.4256 14.27167546225612
ORBCOMM FM 2
1 25480U 98053F   03021.68060661  .00001160  00000-0  52139-3 0  1930
2 25480  45.0157 102.6207 0005371 332.1827  27.8727 14.27741810225617
ORBCOMM FM 2
1 25481U 98053G   03021.67938923  .00001430  00000-0  63715-3 0   318
2 25481  45.0091 104.1132 0003378 232.0750 127.9793 14.27165842225617
ORBCOMM FM 2
1 25482U 98053H   03022.28982034  .00001027  00000-0  46135-3 0  8653
2 25482  45.0118  95.9393 0004373 292.0626  67.9731 14.28504250225759
ORBCOMM FM 3
1 25980U 99065A   03021.96860431  .00001283  00000-0  57839-3 0  7892
2 25980  45.0403 260.4697 0003306 121.6866 238.4301 14.27083284163020
ORBCOMM FM 3
1 25981U 99065B   03021.88683550  .00001369  00000-0  61348-3 0  8288
2 25981  45.0294 260.0775 0002721 118.3624 241.7487 14.27082576163000
ORBCOMM FM 3
1 25982U 99065C   03021.80543918  .00001397  00000-0  62479-3 0  8045
2 25982  45.0267 260.3753 0002409 121.8776 238.2298 14.27081978162993
ORBCOMM FM 3
1 25983U 99065D   03021.80030560  .00001380  00000-0  61805-3 0  7953
2 25983  45.0322 260.8141 0002227 107.1543 252.9509 14.27074464162999
ORBCOMM FM 3
1 25984U 99065E   03021.86364755  .00001345  00000-0  60374-3 0  7698
2 25984  45.0432 261.0520 0007332  48.5798 311.5660 14.27076149163003
ORBCOMM FM 3
1 25985U 99065F   03021.78219433  .00001194  00000-0  54222-3 0  7868
2 25985  45.0469 261.6143 0003038  80.4223 279.6946 14.27084105162997
ORBCOMM FM 3
1 25986U 99065G   03021.84040427  .00001166  00000-0  53065-3 0  7965
2 25986  45.0468 261.1016 0004940  94.3572 265.7841 14.27085137163004
GLOBSTR M001
1 25162U 98008A   03022.53443945 -.00000104  00000-0  00000+0 0  6931
2 25162  52.0001 162.5841 0002647 144.6230 215.4812 12.62274692227838
GLOBSTR M004
1 25163U 98008B   03021.88770879 -.00000104  00000-0  00000-0 0  6906
2 25163  52.0094 164.1544 0004062 158.0424 202.0618 12.62270968227766
GLOBSTR M002
1 25164U 98008C   03021.90350393 -.00000084  00000-0  10000-3 0  6401
2 25164  52.0017 222.3898 0008148 100.3816 259.8004 12.38111059226727
GLOBSTR M003
1 25165U 98008D   03022.50797330 -.00000104  00000-0  00000+0 0  6795
2 25165  52.0245 161.5573 0005655 162.6431 197.4639 12.62271521227831
GLOBSTR M014
1 25306U 98023A   03021.19836491 -.00000097  00000-0  00000-0 0  4773
2 25306  51.9953 274.8367 0010819 220.4530 139.5527 12.38429316217698
GLOBSTR M006
1 25307U 98023B   03021.89947738 -.00000104  00000-0  00000-0 0  5060
2 25307  51.9982 209.0655 0002471  73.6833 286.4306 12.62270440218923
GLOBSTR M015
1 25308U 98023C   03021.95224220 -.00000086  00000-0  10000-3 0  5256
2 25308  51.9957 208.5579 0001855  87.9346 272.1735 12.62271937218938
GLOBSTR M008
1 25309U 98023D   03021.93906320 -.00000104  00000-0  00000-0 0  4978
2 25309  51.9928 208.7085 0002403  96.7288 263.3851 12.62260304218942
GLOBSTR M023
1 25621U 99004A   03021.74436055 -.00000104  00000-0  00000-0 0  4023
2 25621  52.0033 119.9570 0002540 129.3247 230.7846 12.62271497182453
GLOBSTR M040
1 25622U 99004B   03021.78422175 -.00000104  00000-0  00000-0 0  4161
2 25622  51.9923 119.0130 0002370 118.5984 241.5122 12.62265893182463
GLOBSTR M036
1 25623U 99004C   03021.71789914 -.00000104  00000-0  00000-0 0  4106
2 25623  52.0009 120.1391 0003854 147.5432 212.5673 12.62271783182465
GLOBSTR M038
1 25624U 99004D   03021.73794359 -.00000104  00000-0  00000-0 0  4546
2 25624  52.0050 119.3077 0001301 103.7464 256.3547 12.62268121182487
GLOBSTR M022
1 25649U 99012A   03021.80567067 -.00000086  00000-0  10000-3 0  4008
2 25649  52.0108 255.3633 0002167  80.5361 279.5750 12.62261183178036
GLOBSTR M041
1 25650U 99012B   03021.81885310 -.00000086  00000-0  10000-3 0  4128
2 25650  52.0098 255.2865 0000954  66.2841 293.8126 12.62267320178033
GLOBSTR M046
1 25651U 99012C   03021.75276738 -.00000086  00000-0  10000-3 0  4209
2 25651  52.0051 254.0336 0002020  44.3358 315.7670 12.62267720178019
GLOBSTR M037
1 25652U 99012D   03021.95088991 -.00000086  00000-0  10000-3 0  4079
2 25652  52.0050 254.8188 0001140  77.0961 283.0034 12.62261733178005
GLOBSTR M045
1 25676U 99019A   03021.93755090  .00000077  00000-0  10075-2 0  4802
2 25676  51.9925 253.7087 0026237  41.5549 318.7303 12.62262723175606
GLOBSTR M019
1 25677U 99019B   03021.90942897 -.00000073  00000-0  17377-3 0  4162
2 25677  51.9887 299.1673 0003154  40.8612 319.2461 12.62264245175540
GLOBSTR M044
1 25678U 99019C   03021.84515650 -.00000086  00000-0  10000-3 0  4215
2 25678  52.0032 255.0543 0001514  86.6497 273.4543 12.62259351174935
GLOBSTR M042
1 25679U 99019D   03021.98705062 -.00000086  00000-0  10000-3 0  5085
2 25679  52.0046 344.1710 0000834 204.2993 155.7828 12.62258962174126
GLOBSTR M025
1 25770U 99031A   03022.19969418 -.00000086  00000-0  10000-3 0  3721
2 25770  51.9972 298.4839 0001984  22.0506 338.0446 12.62263953166905
GLOBSTR M049
1 25771U 99031B   03021.85664767 -.00000086  00000-0  10000-3 0  5602
2 25771  51.9886 299.2541 0001403  29.4998 330.5752 12.62264810166866
GLOBSTR M047
1 25772U 99031C   03021.89634744 -.00000086  00000-0  10000-3 0  4383
2 25772  51.9980 298.8702 0001201 125.5931 234.5038 12.62259132166879
GLOBSTR M052
1 25773U 99031D   03021.92271305  .00000983  00000-0  60642-2 0  3951
2 25773  51.9928 298.6436 0003743  24.6896 335.3649 12.62276798166871
GLOBSTR M035
1 25851U 99037A   03021.92110931 -.00000104  00000-0  00000-0 0  3643
2 25851  52.0040 343.5409 0000467 151.7312 208.3579 12.62259770163116
GLOBSTR M032
1 25852U 99037B   03021.93420034 -.00000104  00000-0  00000-0 0  3665
2 25852  52.0044 343.6705 0000385 174.2396 185.8476 12.62269307163114
GLOBSTR M051
1 25853U 99037C   03021.97381352 -.00000104  00000-0  00000-0 0  3647
2 25853  52.0046 343.7454 0000594 159.5828 200.5062 12.62259479163112
GLOBSTR M030
1 25854U 99037D   03021.94733656 -.00000104  00000-0  00000-0 0  3609
2 25854  52.0026 343.6951 0000412 110.3731 249.7179 12.62270420163112
GLOBSTR M048
1 25872U 99041A   03021.98523426 -.00000104  00000-0  00000-0 0  4083
2 25872  52.0074  29.1726 0001149 154.7355 205.3568 12.62271267161234
GLOBSTR M026
1 25873U 99041B   03021.52362725 -.00000104  00000-0  00000-0 0  3750
2 25873  52.0063  30.6693 0001026 176.8192 183.2682 12.62260028161178
